Weather reports worldwide

Advertisment
Kleine Brogel, Belgium (6479): temperature & dewpoint: 30.05.2020 08:00:00 - 05.06.2020 08:00:00 (CEST)Kleine Brogel, Belgium (6479): wind speed & gusts: 30.05.2020 08:00:00 - 05.06.2020 08:00:00 (CEST)Kleine Brogel, Belgium (6479): wind direction: 30.05.2020 08:00:00 - 05.06.2020 08:00:00 (CEST)Kleine Brogel, Belgium (6479): reduced air pressure: 30.05.2020 08:00:00 - 05.06.2020 08:00:00 (CEST)Kleine Brogel, Belgium (6479): visibility: 30.05.2020 08:00:00 - 05.06.2020 08:00:00 (CEST)
Date & Time tt [°C] td [°C] ff [km/h] ff [kn] fx [km/h] fx [kn] dd ppp [hPa] vv [km]
05.06.2020 08:00:00 10,8 8,1 14 8 - - SSW 996,1 20
05.06.2020 07:00:00 9,1 7,3 4 2 11 6 N 996,9 20
05.06.2020 06:00:00 7,4 6,5 4 2 11 6 N 997,4 20
05.06.2020 05:00:00 7,4 6,1 4 2 - - N 998,1 20
05.06.2020 04:00:00 7,5 6,1 7 4 14 8 SW 998,5 20
05.06.2020 03:00:00 8,1 6,6 7 4 14 8 N 999,0 20
05.06.2020 02:00:00 8,8 6,4 11 6 - - WSW 999,0 20
05.06.2020 01:00:00 9,5 7,3 11 6 18 10 WSW 999,2 20
05.06.2020 00:00:00 9,6 8,0 7 4 18 10 WSW 999,3 20
04.06.2020 23:00:00 10,1 8,5 11 6 - - W 999,2 7
04.06.2020 22:00:00 10,8 7,9 11 6 25 14 WNW 998,9 20
04.06.2020 21:00:00 11,3 8,8 11 6 29 16 WNW 998,5 20
04.06.2020 20:00:00 12,0 8,7 14 8 - - WNW 998,2 20
04.06.2020 19:00:00 13,6 9,5 11 6 18 10 W 997,4 20
04.06.2020 18:00:00 12,9 10,8 7 4 22 12 W 997,4 20
04.06.2020 17:00:00 12,9 10,7 14 8 - - WNW 997,8 10
04.06.2020 16:00:00 13,2 12,3 11 6 22 12 W 997,5 5
04.06.2020 15:00:00 13,5 12,4 7 4 18 10 W 997,5 8
04.06.2020 14:00:00 12,9 12,0 7 4 - - W 997,8 8
04.06.2020 13:00:00 12,5 11,0 7 4 25 14 WNW 998,1 8
04.06.2020 12:00:00 14,5 8,1 11 6 25 14 NW 998,0 20
04.06.2020 11:00:00 13,5 11,0 11 6 - - WNW 998,0 8
04.06.2020 10:00:00 13,8 11,2 11 6 22 12 NW 998,0 7
04.06.2020 09:00:00 14,2 10,8 7 4 22 12 WNW 998,0 20
04.06.2020 08:00:00 14,0 11,1 9 5 - - NW 997,9 10
04.06.2020 07:00:00 14,0 11,2 11 6 22 12 WNW 998,2 19
04.06.2020 06:00:00 14,1 11,3 7 4 14 8 NNW 998,5 18
04.06.2020 05:00:00 14,3 11,7 4 2 - - N 998,8 17
04.06.2020 04:00:00 14,1 11,6 4 2 11 6 N 999,4 15
04.06.2020 03:00:00 13,9 11,4 4 2 14 8 N 1000,0 17
04.06.2020 02:00:00 14,3 11,4 7 4 - - WNW 1000,5 19
04.06.2020 01:00:00 14,8 11,3 7 4 22 12 NNW 1000,7 19
04.06.2020 00:00:00 16,0 9,6 11 6 18 10 NNW 1001,2 20
03.06.2020 23:00:00 17,0 9,5 4 2 - - N 1001,7 20
03.06.2020 22:00:00 18,2 8,8 11 6 22 12 NNW 1001,8 20
03.06.2020 21:00:00 19,8 8,0 7 4 22 12 NNW 1001,8 20
03.06.2020 20:00:00 21,0 8,2 14 8 - - NNW 1002,1 20
03.06.2020 19:00:00 22,1 8,4 11 6 22 12 NNW 1001,8 20
03.06.2020 18:00:00 23,9 5,0 11 6 25 14 WNW 1002,2 20
03.06.2020 17:00:00 24,1 6,1 11 6 - - WNW 1002,7 20
03.06.2020 16:00:00 24,2 4,2 14 8 29 16 WSW 1003,3 20
03.06.2020 15:00:00 24,4 1,2 14 8 29 16 W 1004,2 20
03.06.2020 14:00:00 24,4 2,3 18 10 - - WSW 1004,7 20
03.06.2020 13:00:00 23,4 5,7 18 10 36 19 W 1005,6 20
03.06.2020 12:00:00 22,2 6,3 18 10 32 18 WSW 1006,2 20
03.06.2020 11:00:00 21,0 8,8 14 8 - - W 1006,7 20
03.06.2020 10:00:00 19,3 9,6 14 8 22 12 WSW 1007,0 20
03.06.2020 09:00:00 17,9 11,6 11 6 18 10 WSW 1007,5 20
03.06.2020 08:00:00 15,5 11,4 7 4 - - WSW 1008,0 20
03.06.2020 07:00:00 13,0 11,3 7 4 11 6 WSW 1008,2 20
03.06.2020 06:00:00 11,6 10,6 7 4 7 4 SW 1008,5 4,0
03.06.2020 05:00:00 12,0 10,3 4 2 - - N 1009,0 8
03.06.2020 04:00:00 12,4 9,5 4 2 7 4 N 1009,6 19
03.06.2020 03:00:00 13,2 8,9 7 4 7 4 SW 1010,2 20
03.06.2020 02:00:00 13,9 8,3 4 2 - - N 1010,8 20
03.06.2020 01:00:00 15,1 8,0 4 2 7 4 N 1011,5 20
03.06.2020 00:00:00 16,0 7,3 4 2 11 6 N 1012,1 20
02.06.2020 23:00:00 17,8 6,7 4 2 - - N 1012,5 20
02.06.2020 22:00:00 20,8 6,1 4 2 25 14 N 1012,6 20
02.06.2020 21:00:00 22,9 6,9 18 10 25 14 NNW 1012,6 20
02.06.2020 20:00:00 24,7 6,5 11 6 - - NW 1012,5 20
02.06.2020 19:00:00 26,7 7,7 11 6 29 16 WNW 1012,6 20
02.06.2020 18:00:00 27,2 7,7 7 4 18 10 N 1012,8 20
02.06.2020 17:00:00 28,2 7,3 4 2 - - N 1013,5 20
02.06.2020 16:00:00 29,3 7,7 7 4 18 10 NNE 1014,2 20
02.06.2020 15:00:00 28,3 7,1 7 4 22 12 NNE 1015,1 20
02.06.2020 14:00:00 27,3 6,2 4 2 - - N 1015,7 20
02.06.2020 13:00:00 26,4 5,6 4 2 14 8 N 1016,5 20
02.06.2020 12:00:00 26,3 7,5 4 2 11 6 N 1017,1 20
02.06.2020 11:00:00 24,1 8,3 4 2 - - N 1017,7 20
02.06.2020 10:00:00 22,9 9,2 4 2 7 4 N 1018,2 20
02.06.2020 09:00:00 20,3 8,0 4 2 7 4 N 1018,5 20
02.06.2020 08:00:00 17,9 8,6 4 2 - - N 1018,7 20
02.06.2020 07:00:00 12,1 7,4 4 2 0 0 N 1019,0 20
02.06.2020 06:00:00 10,1 6,2 4 2 0 0 N 1018,8 20
02.06.2020 05:00:00 10,6 6,4 4 2 - - N 1018,7 20
02.06.2020 04:00:00 11,5 5,9 4 2 4 2 N 1019,0 20
02.06.2020 03:00:00 13,0 5,7 0 0 4 2 N 1019,2 20
02.06.2020 02:00:00 14,6 5,2 4 2 - - N 1019,5 20
02.06.2020 01:00:00 15,8 4,6 4 2 7 4 N 1019,7 20
02.06.2020 00:00:00 17,3 3,9 4 2 11 6 N 1019,7 20
01.06.2020 23:00:00 18,7 3,3 7 4 - - NNE 1019,8 20
01.06.2020 22:00:00 19,8 4,1 4 2 18 10 N 1019,6 20
01.06.2020 21:00:00 22,4 3,4 11 6 25 14 NE 1019,2 20
01.06.2020 20:00:00 24,1 4,6 18 10 - - NE 1019,3 20
01.06.2020 19:00:00 25,0 5,7 11 6 22 12 E 1019,5 20
01.06.2020 18:00:00 25,3 5,7 11 6 25 14 ENE 1019,6 20
01.06.2020 17:00:00 26,2 6,5 14 8 - - NE 1019,8 20
01.06.2020 16:00:00 26,1 6,3 11 6 25 14 ENE 1020,2 20
01.06.2020 15:00:00 24,2 6,2 7 4 29 16 ENE 1020,7 20
01.06.2020 14:00:00 25,1 7,0 14 8 - - ENE 1021,1 20
01.06.2020 13:00:00 24,1 7,2 14 8 29 16 ENE 1021,6 20
01.06.2020 12:00:00 22,9 7,7 14 8 25 14 ENE 1022,0 20
01.06.2020 11:00:00 21,8 7,1 14 8 - - ENE 1022,2 20
01.06.2020 10:00:00 20,5 8,5 11 6 18 10 ENE 1022,5 20
01.06.2020 09:00:00 18,0 8,4 11 6 18 10 E 1022,5 20
01.06.2020 08:00:00 15,5 8,3 11 6 - - ENE 1022,6 20
01.06.2020 07:00:00 11,1 7,2 4 2 4 2 N 1022,5 20
01.06.2020 06:00:00 8,6 6,1 4 2 4 2 N 1022,5 20
01.06.2020 05:00:00 9,3 6,1 4 2 - - N 1022,2 20
01.06.2020 04:00:00 10,6 6,3 4 2 4 2 N 1022,3 20
01.06.2020 03:00:00 11,0 6,2 4 2 4 2 N 1022,5 20
01.06.2020 02:00:00 11,3 5,7 4 2 - - N 1022,3 20
01.06.2020 01:00:00 12,3 5,9 4 2 7 4 N 1022,3 20
01.06.2020 00:00:00 14,1 5,9 4 2 7 4 N 1022,2 20
31.05.2020 23:00:00 15,2 5,5 7 4 - - NE 1022,0 20
31.05.2020 22:00:00 17,2 5,3 7 4 22 12 NE 1021,6 20
31.05.2020 21:00:00 19,0 5,2 14 8 29 16 NE 1021,2 20
31.05.2020 20:00:00 20,1 4,2 18 10 - - ENE 1021,1 20
31.05.2020 19:00:00 20,9 4,5 18 10 36 19 ENE 1020,7 20
31.05.2020 18:00:00 21,7 4,5 18 10 36 19 ENE 1020,8 20
31.05.2020 17:00:00 21,9 3,9 25 14 - - NE 1021,2 20
31.05.2020 16:00:00 21,8 3,3 25 14 40 21 NE 1021,5 20
31.05.2020 15:00:00 21,3 2,7 18 10 40 21 NE 1021,6 20
31.05.2020 14:00:00 19,8 2,5 18 10 - - NE 1022,0 20
31.05.2020 13:00:00 20,1 3,7 18 10 36 19 E 1022,3 19
31.05.2020 12:00:00 20,1 1,0 22 12 32 18 NE 1022,7 20
31.05.2020 11:00:00 19,2 3,5 22 12 - - ENE 1023,0 20
31.05.2020 10:00:00 17,3 4,9 18 10 29 16 E 1023,1 20
31.05.2020 09:00:00 17,1 5,4 14 8 25 14 ENE 1023,0 20
31.05.2020 08:00:00 14,9 5,6 11 6 - - ENE 1023,0 20
31.05.2020 07:00:00 10,3 5,5 4 2 7 4 N 1022,8 20
31.05.2020 06:00:00 8,6 4,3 4 2 0 0 N 1022,7 20
31.05.2020 05:00:00 9,1 4,0 4 2 - - N 1022,7 20
31.05.2020 04:00:00 - - - - - - - - -
31.05.2020 03:00:00 - - - - - - - - -
31.05.2020 02:00:00 - - - - - - - - -
31.05.2020 01:00:00 - - - - - - - - -
31.05.2020 00:00:00 - - - - - - - - -
30.05.2020 23:00:00 16,2 3,7 11 6 - - ENE 1022,2 20
30.05.2020 22:00:00 - - - - - - - - -
30.05.2020 21:00:00 - - - - - - - - -
30.05.2020 20:00:00 - - - - - - - - -
30.05.2020 19:00:00 - - - - - - - - -
30.05.2020 18:00:00 23,8 3,5 18 10 32 18 NE 1021,2 20
30.05.2020 17:00:00 24,2 3,1 18 10 - - ENE 1021,6 20
30.05.2020 16:00:00 - - - - - - - - -
30.05.2020 15:00:00 - - - - - - - - -
30.05.2020 14:00:00 - - - - - - - - -
30.05.2020 13:00:00 - - - - - - - - -
30.05.2020 12:00:00 - - - - - - - - -
30.05.2020 11:00:00 - - - - - - - - -
30.05.2020 10:00:00 - - - - - - - - -
30.05.2020 09:00:00 - - - - - - - - -
30.05.2020 08:00:00 - - - - - - - - -

tt = temperature
td = dewpoint
ff = wind speed
fx = gusts
dd = wind direction
ppp = reduced air pressure
vv = visibility

Next stations